Regional Weather Roundup
Issued by NWS

Home | Current Version | Previous Version | Graphics & Text | Print | Product List | Glossary On
Versions: 1 2 3 4 5 6 7 8 9 10 11 12 13 14 15 16 17 18 19 20 21 22 23 24 25 26 27 28 29 30 31 32 33 34 35 36 37 38 39 40 41 42 43 44 45 46 47 48 49 50
000
ASUS43 KIND 310459
RWRIN

WEATHER ROUNDUP FOR INDIANA
NATIONAL WEATHER SERVICE INDIANAPOLIS IN
100 AM EDT THU JUL 31 2014

NOTE: "FAIR" INDICATES FEW OR NO CLOUDS BELOW 12,000 FEET WITH NO
SIGNIFICANT WEATHER AND/OR OBSTRUCTIONS TO VISIBILITY.

* - STATION DOES NOT REPORT WEATHER SUCH AS PRECIPITATION OR FOG.

+ - STATION NOT QUALITY CONTROLLED BY THE NATIONAL WEATHER SERVICE.
    USE DATA WITH CAUTION...ESPECIALLY DEWPOINT AND RELATIVE
    HUMIDITY OBSERVATIONS.

INZ001>003-010>013-019-020-310600-
NORTHWEST INDIANA

CITY           SKY/WX    TMP DP  RH WIND       PRES   REMARKS
KNOX *+        CLEAR     56  54  92 CALM      30.04S
MONTICELLO +   CLEAR     60  59  96 CALM      30.04S
RENSSELAER +   CLEAR     59  57  94 CALM      30.05S FOG
VALPARAISO     PTCLDY    58  56  93 CALM      30.05S

$$

LMZ046-743>745-310600-
SOUTHERN LAKE MICHIGAN

STATION/POSITION TIME  TEMP WIND        PRES
                       AIR  DIR/SP/G
                 (UTC) (F)  (DEG/KT/KT) (MB)
MICHIGAN CITY    0400   63  170/  5/  7   N/A

$$

INZ004-005-014>016-021>024-310600-
NORTH CENTRAL INDIANA

CITY           SKY/WX    TMP DP  RH WIND       PRES   REMARKS
GOSHEN         MOCLDY    60  56  86 CALM      30.04S
SOUTH BEND     CLEAR     59  54  83 CALM      30.05S
WARSAW +       MOCLDY    61  57  88 CALM      30.05S

$$

INZ006>009-017-018-025>027-310600-
NORTHEAST INDIANA

CITY           SKY/WX    TMP DP  RH WIND       PRES   REMARKS
ANGOLA *+      CLEAR     59  55  88 CALM      30.04S
FORT WAYNE     MOCLDY    63  59  87 CALM      30.05R

$$

INZ028-029-035-036-043>045-051>053-310600-
WEST CENTRAL INDIANA

CITY           SKY/WX    TMP DP  RH WIND       PRES   REMARKS
GREENCASTLE +  CLEAR     59  59 100 CALM      30.07S
LAFAYETTE      CLEAR     61  60  97 W3        30.04S
TERRE HAUTE    CLEAR     60  57  89 CALM      30.06S

$$

INZ030>032-037>040-046>048-054>057-064-065-310600-
CENTRAL INDIANA

CITY           SKY/WX    TMP DP  RH WIND       PRES   REMARKS
INDIANAPOLIS   PTCLDY    64  61  90 SW3       30.05S
-EAGLE CREEK   CLEAR     64  60  87 CALM      30.06R
KOKOMO *+      CLEAR     61  57  88 SW6       30.05S
MT COMFORT *+  PTCLDY    63 N/A N/A SW3       30.07R
SHELBYVILLE    PTCLDY    65  61  87 CALM      30.06S

$$

INZ033-034-041-042-049-050-058-059-310600-
EAST CENTRAL INDIANA

CITY           SKY/WX    TMP DP  RH WIND       PRES   REMARKS
MUNCIE         PTCLDY    65  60  84 SW6       30.05S

$$

INZ060-061-067>069-081>083-085>088-310600-
SOUTHWEST INDIANA

CITY           SKY/WX    TMP DP  RH WIND       PRES   REMARKS
EVANSVILLE     MOCLDY    69  60  73 CALM      30.08S

$$

INZ062-063-066-070>080-084-089>092-310600-
SOUTH CENTRAL AND SOUTHEAST INDIANA

CITY           SKY/WX    TMP DP  RH WIND       PRES   REMARKS
BLOOMINGTON    CLEAR     62  59  90 CALM      30.07S

$$




USA.gov is the U.S. government's official web portal to all federal, state and local government web resources and services.